Flag for Syria Weather past 2 weeks in Aleppo, Syria

Now
65 °F

Scattered clouds.


Feels Like: 65 °F
Forecast: 49 / 66 °F
Wind: 7 mph from West

Location: Iskenderun

Current Time: Apr 1, 2015 at 6:12:30 PM

Latest Report: Apr 1, 2015 at 5:00 PM


Visibility: 9 mi

Pressure: 29.91 "Hg

Humidity: 65%

Dew point: 53 °F

Location of AleppoLocation

Historic Weather in Aleppo — Graph

°F

Aleppo temperature yesterday

Maximum temperature yesterday: 68 °F (at 3:00 PM)
Minimum temperature yesterday: 61 °F (at 7:00 AM)
Average temperature yesterday: 64 °F

Past Weeks' High & Low Weather Summary

 TemperatureHumidityPressure
High80 °F (Mar 28, 11:00 AM)90% (Mar 21, 3:00 AM)30.17 "Hg (Mar 21, 3:00 AM)
Low48 °F (Mar 22, 4:00 AM)16% (Mar 28, 11:00 AM)29.67 "Hg (Mar 29, 6:00 PM)
Average62 °F54%29.96 "Hg
* Reported Mar 17 3:00 PM — Apr 1 4:00 PM, Aleppo, Weather by CustomWeather, © 2015

Note: Actual official high and low records may vary slightly from our data, if they occured in-between our weather recording intervals... More about our weather records

Advertising

Aleppo weather history for previous 24 hours

 ConditionsComfort  
Time TempWeatherWind HumidityBarometerVisibility
4:00 PM
Wed, Apr 1
66 °FScattered clouds.3 mph62%29.91 "Hg9 mi
3:00 PM65 °FPartly sunny.5 mph64%29.93 "Hg9 mi
2:00 PM65 °FPartly sunny.5 mph67%29.93 "Hg9 mi
1:00 PM62 °FPartly sunny.1 mph73%29.94 "Hg9 mi
12:00 PM62 °FPartly sunny.No wind75%29.94 "Hg9 mi
11:00 AM61 °FPartly sunny.2 mph70%29.94 "Hg9 mi
10:00 AM62 °FPartly sunny.8 mph74%29.92 "Hg9 mi
9:00 AM63 °FScattered clouds.9 mph73%29.86 "Hg9 mi
8:00 AM61 °FPassing clouds.3 mph63%29.84 "Hg9 mi
7:00 AM59 °FPartly sunny.No wind70%29.84 "Hg9 mi
6:00 AM58 °FPassing clouds.No wind73%29.85 "Hg9 mi
5:00 AM60 °FPassing clouds.5 mph76%29.84 "Hg9 mi
4:00 AM59 °FPassing clouds.1 mph65%29.83 "Hg9 mi
3:00 AM60 °FPassing clouds.1 mph65%29.83 "Hg9 mi
2:00 AM60 °FPassing clouds.2 mph63%29.84 "Hg9 mi
1:00 AM59 °FPassing clouds.1 mph70%29.84 "Hg9 mi
11:00 PM
Tue, Mar 31
61 °FPassing clouds.1 mph69%29.86 "Hg9 mi
10:00 PM62 °FPassing clouds.2 mph69%29.87 "Hg9 mi
9:00 PM61 °FOvercast.3 mph74%29.87 "Hg9 mi
8:00 PM62 °FOvercast.3 mph74%29.88 "Hg9 mi
7:00 PMN/APassing clouds.N/AN/AN/A2 mi
6:00 PM65 °FPartly sunny.5 mph65%29.87 "Hg9 mi
Weather by CustomWeather, © 2015

See weather overviewHow to use our weather pages